When you browse on this site, cookies collect data to enhance your experience and personalize the content and advertising you see.
Visit our Privacy Policy to learn more. By continuing to use the site, you agree to this use of cookies and data.
  • în România
  • Lista ţărilor
  • Pe 7 zile
  • Temperatura apei
  • Meteo pe hartă
  • Widget-uri
  • user-avatar
    Intrare

    Meteo pe oră la Dori

    Astăzi, 17 Noiembrie, Duminică

    Timp Temperatura Precipitaţii Vânt Presiune Umiditate
    00:00 +31°C° 0 mm 3 m/s 733 mmHg 16%
    01:00 +30°C° 0 mm 3 m/s 733 mmHg 17%
    02:00 +30°C° 0 mm 3 m/s 733 mmHg 17%
    03:00 +29°C° 0 mm 3 m/s 732 mmHg 18%
    04:00 +29°C° 0 mm 3 m/s 733 mmHg 18%
    05:00 +28°C° 0 mm 3 m/s 733 mmHg 18%
    06:00 +28°C° 0 mm 3 m/s 733 mmHg 19%
    07:00 +30°C° 0 mm 3 m/s 734 mmHg 16%
    08:00 +33°C° 0 mm 4 m/s 734 mmHg 14%
    09:00 +35°C° 0 mm 4 m/s 734 mmHg 12%
    10:00 +36°C° 0 mm 4 m/s 734 mmHg 11%
    11:00 +38°C° 0 mm 4 m/s 734 mmHg 10%
    12:00 +40°C° 0 mm 4 m/s 733 mmHg 9%
    13:00 +40°C° 0 mm 4 m/s 733 mmHg 9%
    14:00 +41°C° 0 mm 4 m/s 732 mmHg 9%
    15:00 +41°C° 0 mm 4 m/s 731 mmHg 9%
    16:00 +38°C° 0 mm 4 m/s 731 mmHg 9%
    17:00 +37°C° 0 mm 4 m/s 732 mmHg 9%
    18:00 +35°C° 0 mm 3 m/s 732 mmHg 9%
    19:00 +35°C° 0 mm 3 m/s 732 mmHg 10%
    20:00 +34°C° 0 mm 3 m/s 733 mmHg 11%
    21:00 +33°C° 0 mm 3 m/s 733 mmHg 12%
    22:00 +33°C° 0 mm 4 m/s 733 mmHg 15%
    23:00 +32°C° 0 mm 4 m/s 733 mmHg 17%

    Mâine, 18 Noiembrie, Luni

    Timp Temperatura Precipitaţii Vânt Presiune Umiditate
    00:00 +32°C° 0 mm 4 m/s 733 mmHg 19%
    01:00 +30°C° 0 mm 4 m/s 732 mmHg 20%
    02:00 +29°C° 0 mm 4 m/s 732 mmHg 21%
    03:00 +29°C° 0 mm 4 m/s 732 mmHg 22%
    04:00 +28°C° 0 mm 4 m/s 732 mmHg 23%
    05:00 +28°C° 0 mm 4 m/s 733 mmHg 23%
    06:00 +27°C° 0 mm 4 m/s 733 mmHg 24%
    07:00 +29°C° 0 mm 5 m/s 733 mmHg 22%
    08:00 +32°C° 0 mm 6 m/s 734 mmHg 20%
    09:00 +34°C° 0 mm 7 m/s 734 mmHg 18%
    10:00 +35°C° 0 mm 6 m/s 734 mmHg 16%
    11:00 +38°C° 0 mm 6 m/s 733 mmHg 15%
    12:00 +40°C° 0 mm 5 m/s 733 mmHg 13%
    13:00 +40°C° 0 mm 5 m/s 732 mmHg 13%
    14:00 +40°C° 0 mm 4 m/s 732 mmHg 13%
    15:00 +41°C° 0 mm 4 m/s 731 mmHg 13%
    16:00 +38°C° 0 mm 4 m/s 731 mmHg 14%
    17:00 +37°C° 0 mm 4 m/s 732 mmHg 15%
    18:00 +36°C° 0 mm 4 m/s 732 mmHg 17%
    19:00 +35°C° 0 mm 4 m/s 732 mmHg 17%
    20:00 +34°C° 0 mm 4 m/s 733 mmHg 18%
    21:00 +33°C° 0 mm 5 m/s 733 mmHg 18%
    22:00 +32°C° 0 mm 5 m/s 733 mmHg 17%
    23:00 +30°C° 0 mm 5 m/s 733 mmHg 16%

    Poimâine, 19 Noiembrie, Marţi

    Timp Temperatura Precipitaţii Vânt Presiune Umiditate
    00:00 +30°C° 0 mm 5 m/s 733 mmHg 15%
    01:00 +29°C° 0 mm 4 m/s 733 mmHg 15%
    02:00 +28°C° 0 mm 4 m/s 733 mmHg 15%
    03:00 +28°C° 0 mm 4 m/s 732 mmHg 15%
    04:00 +27°C° 0 mm 4 m/s 733 mmHg 15%
    05:00 +27°C° 0 mm 4 m/s 733 mmHg 15%
    06:00 +26°C° 0 mm 4 m/s 733 mmHg 15%
    07:00 +28°C° 0 mm 4 m/s 734 mmHg 13%
    08:00 +30°C° 0 mm 5 m/s 734 mmHg 12%
    09:00 +33°C° 0 mm 6 m/s 734 mmHg 10%
    10:00 +35°C° 0 mm 5 m/s 734 mmHg 10%
    11:00 +36°C° 0 mm 5 m/s 733 mmHg 10%
    12:00 +38°C° 0 mm 4 m/s 733 mmHg 10%
    13:00 +40°C° 0 mm 4 m/s 732 mmHg 10%
    14:00 +39°C° 0 mm 3 m/s 732 mmHg 10%
    15:00 +39°C° 0 mm 2 m/s 732 mmHg 10%
    16:00 +38°C° 0 mm 3 m/s 732 mmHg 11%
    17:00 +36°C° 0 mm 3 m/s 732 mmHg 12%
    18:00 +35°C° 0 mm 3 m/s 732 mmHg 13%
    19:00 +34°C° 0 mm 3 m/s 732 mmHg 14%
    20:00 +33°C° 0 mm 4 m/s 733 mmHg 14%
    21:00 +32°C° 0 mm 4 m/s 733 mmHg 15%
    22:00 +32°C° 0 mm 4 m/s 733 mmHg 15%
    23:00 +30°C° 0 mm 5 m/s 733 mmHg 16%

    20 Noiembrie, Miercuri

    Timp Temperatura Precipitaţii Vânt Presiune Umiditate
    00:00 +29°C° 0 mm 5 m/s 733 mmHg 16%
    01:00 +29°C° 0 mm 5 m/s 733 mmHg 16%
    02:00 +28°C° 0 mm 5 m/s 732 mmHg 16%
    03:00 +27°C° 0 mm 4 m/s 732 mmHg 16%
    04:00 +27°C° 0 mm 4 m/s 733 mmHg 16%
    05:00 +26°C° 0 mm 4 m/s 733 mmHg 16%
    06:00 +26°C° 0 mm 4 m/s 733 mmHg 16%
    07:00 +28°C° 0 mm 4 m/s 734 mmHg 14%
    08:00 +30°C° 0 mm 5 m/s 734 mmHg 13%
    09:00 +33°C° 0 mm 5 m/s 735 mmHg 11%
    10:00 +35°C° 0 mm 5 m/s 734 mmHg 10%
    11:00 +37°C° 0 mm 4 m/s 734 mmHg 10%
    12:00 +40°C° 0 mm 4 m/s 733 mmHg 9%
    13:00 +41°C° 0 mm 4 m/s 733 mmHg 9%
    14:00 +40°C° 0 mm 3 m/s 732 mmHg 9%
    15:00 +40°C° 0 mm 3 m/s 732 mmHg 9%
    16:00 +39°C° 0 mm 3 m/s 732 mmHg 11%
    17:00 +37°C° 0 mm 3 m/s 732 mmHg 12%
    18:00 +35°C° 0 mm 4 m/s 732 mmHg 13%
    19:00 +35°C° 0 mm 4 m/s 733 mmHg 14%
    20:00 +34°C° 0 mm 4 m/s 733 mmHg 16%
    21:00 +33°C° 0 mm 4 m/s 734 mmHg 17%
    22:00 +32°C° 0 mm 4 m/s 733 mmHg 18%
    23:00 +32°C° 0 mm 4 m/s 733 mmHg 19%

    21 Noiembrie, Joi

    Timp Temperatura Precipitaţii Vânt Presiune Umiditate
    00:00 +30°C° 0 mm 4 m/s 733 mmHg 20%
    01:00 +29°C° 0 mm 4 m/s 733 mmHg 21%
    02:00 +28°C° 0 mm 4 m/s 733 mmHg 21%
    03:00 +28°C° 0 mm 4 m/s 732 mmHg 22%
    04:00 +27°C° 0 mm 4 m/s 732 mmHg 21%
    05:00 +27°C° 0 mm 4 m/s 733 mmHg 20%
    06:00 +26°C° 0 mm 4 m/s 733 mmHg 19%
    07:00 +28°C° 0 mm 5 m/s 733 mmHg 17%
    08:00 +32°C° 0 mm 5 m/s 734 mmHg 15%
    09:00 +34°C° 0 mm 6 m/s 734 mmHg 13%
    10:00 +36°C° 0 mm 6 m/s 734 mmHg 12%
    11:00 +39°C° 0 mm 6 m/s 733 mmHg 12%
    12:00 +41°C° 0 mm 6 m/s 733 mmHg 11%
    13:00 +41°C° 0 mm 5 m/s 732 mmHg 11%
    14:00 +42°C° 0 mm 5 m/s 732 mmHg 10%
    15:00 +42°C° 0 mm 5 m/s 731 mmHg 10%
    16:00 +40°C° 0 mm 4 m/s 731 mmHg 11%
    17:00 +37°C° 0 mm 4 m/s 731 mmHg 12%
    18:00 +36°C° 0 mm 4 m/s 731 mmHg 13%
    19:00 +35°C° 0 mm 4 m/s 732 mmHg 14%
    20:00 +34°C° 0 mm 4 m/s 732 mmHg 14%
    21:00 +33°C° 0 mm 4 m/s 733 mmHg 15%
    22:00 +33°C° 0 mm 4 m/s 733 mmHg 16%
    23:00 +32°C° 0 mm 4 m/s 733 mmHg 17%

    22 Noiembrie, Vineri

    Timp Temperatura Precipitaţii Vânt Presiune Umiditate
    00:00 +30°C° 0 mm 4 m/s 733 mmHg 18%
    01:00 +30°C° 0 mm 5 m/s 732 mmHg 19%
    02:00 +29°C° 0 mm 5 m/s 732 mmHg 20%
    03:00 +28°C° 0 mm 5 m/s 732 mmHg 21%
    04:00 +28°C° 0 mm 5 m/s 732 mmHg 21%
    05:00 +27°C° 0 mm 4 m/s 732 mmHg 21%
    06:00 +27°C° 0 mm 4 m/s 732 mmHg 22%
    07:00 +29°C° 0 mm 5 m/s 733 mmHg 19%
    08:00 +32°C° 0 mm 6 m/s 734 mmHg 16%
    09:00 +34°C° 0 mm 7 m/s 734 mmHg 13%
    10:00 +36°C° 0 mm 6 m/s 734 mmHg 12%
    11:00 +39°C° 0 mm 6 m/s 733 mmHg 11%
    12:00 +41°C° 0 mm 6 m/s 733 mmHg 10%
    13:00 +41°C° 0 mm 6 m/s 732 mmHg 10%
    14:00 +42°C° 0 mm 5 m/s 732 mmHg 10%
    15:00 +42°C° 0 mm 5 m/s 731 mmHg 10%
    16:00 +40°C° 0 mm 4 m/s 731 mmHg 11%
    17:00 +37°C° 0 mm 4 m/s 731 mmHg 12%
    18:00 +36°C° 0 mm 3 m/s 731 mmHg 13%
    19:00 +35°C° 0 mm 3 m/s 732 mmHg 14%
    20:00 +34°C° 0 mm 3 m/s 732 mmHg 15%
    21:00 +33°C° 0 mm 3 m/s 732 mmHg 16%
    22:00 +32°C° 0 mm 4 m/s 733 mmHg 16%
    23:00 +32°C° 0 mm 4 m/s 733 mmHg 17%
    Arată mai mult